Back to catalog

STARLINK-35292

AliveCommunicationsVLEO
NORAD 66322·PAYLOAD·🇺🇸 United States

Launched Nov 6, 2025 from Cape Canaveral Space Force Station

Loading…

Next Passes (next 24 hours)

TLE

FreshSource: CelesTrak SupGP

Epoch: Sep 14, 2026, 15:13 UTC

1 66322C 25253D   26257.63451389 -.00027037  00000+0 -97940-3 0  2576
2 66322  43.0031 225.2547 0001417 268.2627  84.8412 15.27587363    10

Track STARLINK-35292 in real time with AllMySat

Download on the App Store